Weather in Mikhaylovskoe

Russia / Republic of North Ossetia — Alania     43°06′00″N   44°37′56″E
temp.,
°C
wind,
m/s
gust,
m/s
humid.,
%
clouds,
%
prec.,
mm/h
press.,
hPa
HPBL,
m
7 march, sun
sun700:00+2s3354100 0.0 101543
03:00+1sse1258100 0.0 101744
06:00−4wnw2695100 4.7 1022483
09:00−3nnw2391100 5.8 1022418
12:00−3n3382100 0.9 1022639
15:00−1ne2371100 1.5 1021823
18:00−4ene237682 0.1 1022269
21:00−6se137757 0.1 1023165
8 march, mon
mon800:00−5se11730 0.0 102269
03:00−6s11761 0.0 102253
06:00−6ssw01750 0.0 102175
09:00−2nnw12709 0.0 1019405
12:000n336176 0.0 1017835
15:00+1n226188 0.1 1016912
18:00−3n1186100 0.3 1017257
21:00−3s1186100 0.6 1019152
9 march, tue
tue900:00−4s118094 0.0 101852
03:00−5s117656 0.0 101840
06:00−5ssw117795 0.1 101855
09:00−1n117487 0.1 1018432
12:00+2nne116878 0.1 1016822
15:00+3n225769 0.1 10161100
18:000nne116587 0.2 1018367
21:00−3s227893 0.3 102292
10 march, wed
wed1000:00−4s228296 0.6 102385
03:00−5s229398 2.3 1023117
06:00−5s2291100 0.8 1024100
09:00−1n117991 0.9 1022372
12:000nne348774 0.3 1020582
15:00−1nne359087 1.4 1019536
18:00−3ne2593100 1.1 1019401
21:00−4ene2591100 1.5 1019394
11 march, thu
thu1100:00−4ene1492100 0.1 1017312
03:00−4ene1195100 0.6 1016131
06:00−5ne2595100 1.8 1017385
09:00−5ne3590100 3.0 1019526
12:00−4ne4690100 1.2 1018663
15:00−5ne4790100 2.8 1019742
18:00−7ene3692100 1.1 1021548
21:00−9ene2492100 1.4 1024324